Weather History for Greenville, ME

Change the Weather History Date:

Monday, October 24, 2011

  Actual Average (KMLT) Record (KMLT)
Temperature  
Mean Temperature 44 °F 43 °F  
Max Temperature 52 °F 52 °F 76 °F (1979)
Min Temperature 37 °F 34 °F 19 °F (1905)
Degree Days  
Heating Degree Days 21 22  
Month to date heating degree days 442  
Since 1 July heating degree days 770  
Cooling Degree Days 0 0  
Month to date cooling degree days 0  
Year to date cooling degree days 268  
Moisture  
Dew Point 36 °F    
Average Humidity 73    
Maximum Humidity 97    
Minimum Humidity 54    
Precipitation  
Precipitation 0.00 in 0.13 in 2.80 in (1981)
Month to date precipitation 3.25  
Year to date precipitation 33.90  
Sea Level Pressure  
Sea Level Pressure 30.03 in    
Wind  
Wind Speed 2 mph (SSE)    
Max Wind Speed 7 mph    
Max Gust Speed -    
T = Trace of Precipitation, MM = Missing Value Source: NWS Daily Summary

Daily Weather History Graph

Daily Weather History Graph

Search for Another Location

Airport:

Trip Planner

Search our weather history database for the weather conditions in past years. The results will help you decide how hot, cold, wet, or windy it might be!

Date:

Astronomy

Oct. 24, 2011 Rise Set
Actual Time 7:06 AM EDT 5:38 PM EDT
Civil Twilight 6:35 AM EDT 6:08 PM EDT
Nautical Twilight 6:01 AM EDT 6:42 PM EDT
Astronomical Twilight 5:27 AM EDT 7:17 PM EDT
Moon 4:14 AM EDT (10/24) 4:05 PM EDT (10/24)
Length of Visible Light 11h 32m
Length of Day
10h 31m
Waning Crescent, 7% of the Moon is Illuminated
Oct 24
Waning Crescent
Oct 26
New
Nov 2
First Quarter
Nov 10
Full
Nov 18
Last Quarter

Hourly Weather History & Observations

Time (EDT) Temp. Windchill Dew Point Humidity Pressure Visibility Wind Dir Wind Speed Gust Speed Precip Events Conditions
12:56 AM 43.0 °F - 32.0 °F 65% 30.10 in - Calm Calm - N/A   Unknown
1:56 AM 43.0 °F - 34.0 °F 71% 30.11 in - Calm Calm - N/A   Unknown
2:56 AM 43.0 °F 41.3 °F 35.1 °F 74% 30.09 in - North 3.5 mph - N/A   Unknown
3:56 AM 43.0 °F - 34.0 °F 71% 30.11 in - Calm Calm - N/A   Unknown
4:56 AM 41.0 °F - 35.1 °F 79% 30.10 in - Calm Calm - N/A   Unknown
5:56 AM 39.0 °F - 33.1 °F 79% 30.10 in - Calm Calm - N/A   Unknown
6:56 AM 39.0 °F - 33.1 °F 79% 30.11 in - Calm Calm - N/A   Unknown
7:56 AM 37.0 °F - 32.0 °F 82% 30.12 in - Calm Calm - N/A   Unknown
8:56 AM 43.0 °F - 34.0 °F 71% 30.11 in - Calm Calm - N/A   Unknown
9:56 AM 46.0 °F 44.8 °F 34.0 °F 63% 30.09 in - SSE 3.5 mph - N/A   Unknown
10:56 AM 48.0 °F - 35.1 °F 61% 30.09 in - South 5.8 mph - N/A   Unknown
11:56 AM 48.9 °F - 35.1 °F 59% 30.07 in - South 6.9 mph - N/A   Unknown
12:56 PM 48.9 °F - 34.0 °F 56% 30.04 in - Variable 3.5 mph - N/A   Unknown
1:56 PM 51.1 °F - 35.1 °F 54% 30.01 in - South 6.9 mph - N/A   Unknown
2:56 PM 51.1 °F - 36.0 °F 56% 30.00 in - Variable 3.5 mph - N/A   Unknown
3:56 PM 51.1 °F - 36.0 °F 56% 29.98 in - Variable 5.8 mph - N/A   Unknown
4:56 PM 48.0 °F - 36.0 °F 63% 29.97 in - Variable 6.9 mph - N/A   Unknown
5:56 PM 45.0 °F - 37.0 °F 74% 29.97 in - Calm Calm - N/A   Unknown
6:56 PM 43.0 °F 40.3 °F 37.0 °F 80% 29.96 in - SE 4.6 mph - N/A   Unknown
7:56 PM 41.0 °F 39.0 °F 37.0 °F 86% 29.96 in - SSE 3.5 mph - N/A   Unknown
8:56 PM 43.0 °F 39.5 °F 39.0 °F 86% 29.94 in - SSE 5.8 mph - N/A   Unknown
9:56 PM 43.0 °F 40.3 °F 39.9 °F 89% 29.92 in - SSE 4.6 mph - N/A   Unknown
10:56 PM 43.0 °F 39.5 °F 41.0 °F 93% 29.90 in - SSE 5.8 mph - N/A   Unknown
11:56 PM 43.0 °F 41.3 °F 42.1 °F 97% 29.88 in - SSE 3.5 mph - N/A   Unknown